Location: Unspecified
(0.0000°N, 0.0000°E)
Time: 07:07:40
(UTC+01:00)

Vanguard 1 - Visible Passes

Search period start: 04 December 2016 00:00
Search period end: 14 December 2016 00:00
Orbit: 650 x 3834 km, 34.3° (Epoch: 03 December)

Date Brightness Start Highest point End Pass type
(mag) Time Alt. Az. Time Alt. Az. Time Alt. Az.
04 Dec13.501:06:29SE01:06:29SE00:31:00NWvisible
04 Dec 12.7 03:19:09 20° SSW 03:19:09 20° SSW 03:23:18 10° S visible
04 Dec 13.4 20:00:50 10° NNW 20:18:25 27° NNE 20:25:52 23° NE visible
04 Dec 13.3 22:25:58 10° NW 22:38:39 38° NNW 22:38:39 38° NNW visible
05 Dec 13.3 01:25:47 13° SE 01:25:47 13° SE 01:26:31 10° SE visible
05 Dec 13.0 03:38:27 15° SW 03:38:27 15° SW 03:42:41 10° S visible
05 Dec 13.2 20:22:17 10° NNW 20:41:36 33° NNE 20:46:26 31° NE visible
05 Dec 13.3 22:47:28 10° NW 22:59:14 37° NW 22:59:14 37° NW visible
06 Dec 13.1 01:45:00 19° SSE 01:45:00 19° SSE 01:47:11 10° SSE visible
06 Dec 13.0 20:43:35 10° NW 21:04:27 40° NNE 21:07:12 39° NE visible
06 Dec 13.4 23:09:09 10° NW 23:20:01 36° NW 23:20:01 36° NW visible
07 Dec 13.0 02:04:06 22° S 02:04:06 22° S 02:07:39 10° SSE visible
07 Dec 12.8 21:04:49 10° NW 21:26:58 49° NNE 21:28:13 49° NE visible
07 Dec 13.5 23:31:07 10° WNW 00:10:27 - SE 23:41:04 33° WNW visible
08 Dec 13.0 02:23:05 22° SSW 02:23:05 22° SSW 02:27:51 10° SSE visible
08 Dec 13.5 19:02:39 10° NNW 19:18:58 27° NNE 19:36:43 10° ENE visible
08 Dec 12.6 21:26:06 10° NW 21:49:14 60° NE 21:49:35 60° NE visible
08 Dec 13.4 23:53:26 10° WNW 00:29:15 14° SE 00:30:17 10° SE visible
09 Dec 13.2 02:41:51 18° SSW 02:41:51 18° SSW 02:47:43 10° S visible
09 Dec 13.3 19:23:48 10° NNW 19:41:55 33° NNE 19:58:27 15° E visible
09 Dec 12.5 21:47:29 10° NW 22:11:16 73° NE 22:11:22 73° NE visible
10 Dec 13.2 00:16:15 10° WNW 00:47:46 22° SSE 00:51:02 10° SSE visible
10 Dec 13.4 03:00:21 12° SW 03:02:10 13° SW 03:06:45 10° S visible
10 Dec 13.1 19:44:51 10° NNW 20:04:33 41° NNE 20:20:46 18° E visible
10 Dec 12.5 22:09:05 10° NW 22:33:07 88° NE 22:33:45 86° E visible
11 Dec 13.1 00:39:40 10° W 01:05:52 28° S 01:11:36 10° SSE visible
11 Dec 12.9 20:05:55 10° NW 20:26:53 51° NE 20:44:08 18° E visible
11 Dec 12.5 22:30:56 10° WNW 22:54:51 77° SW 23:12:30 10° SE visible
12 Dec 13.2 01:03:51 10° W 01:23:00 28° SSW 01:32:01 10° SSE visible
12 Dec 12.8 20:27:03 10° NW 20:49:00 62° NE 21:10:04 10° ESE visible
12 Dec 12.8 22:53:10 10° WNW 23:16:31 63° SW 23:33:31 10° SE visible
13 Dec 13.4 01:28:57 10° WSW 01:42:30 22° SW 01:52:14 10° S visible
13 Dec 12.7 20:48:19 10° NW 21:10:58 75° NE 21:32:02 10° ESE visible
13 Dec 13.0 23:15:52 10° WNW 23:38:12 51° SW 23:54:23 10° SE visible
